Yakima, WA

10:26 AM PDT on July 24, 2016 (GMT -0700)
Yakima Air Term-McAllister

Weather History for KYKM - September, 2013

Change the Weather History Date:

Wednesday, September 4, 2013

  Actual Average Record
Temperature  
Mean Temperature 79 °F 64 °F  
Max Temperature 93 °F 82 °F 98 °F (1988)
Min Temperature 64 °F 47 °F 35 °F (1996)
Degree Days  
Heating Degree Days 0 3  
Month to date heating degree days 0 9  
Since 1 July heating degree days 0 57  
Cooling Degree Days 14 2  
Month to date cooling degree days 44 8  
Year to date cooling degree days 879 448  
Growing Degree Days 28 (Base 50)    
Moisture  
Dew Point 52 °F    
Average Humidity 42    
Maximum Humidity 63    
Minimum Humidity 20    
Precipitation  
Precipitation 0.00 in 0.01 in 0.08 in (2007)
Month to date precipitation 0.00 0.05  
Year to date precipitation 4.36 4.82  
Snow  
Snow 0.00 in 0.00 in 0.00 in (2002)
Month to date snowfall 0.0 0.0  
Year to date snowfall 1.1 8.6  
Since 1 July snowfall 0.0 0.0  
Snow Depth 0.00 in    
Sea Level Pressure  
Sea Level Pressure 29.91 in    
Wind  
Wind Speed 6 mph (West)    
Max Wind Speed 13 mph    
Max Gust Speed 23 mph    
Visibility 10 miles    
Events      
T = Trace of Precipitation, MM = Missing Value Source: NWS Daily Summary

Daily Weather History Graph

Daily Weather History Graph

Search for Another Location

Airport or City:

Trip Planner

Search our weather history database for the weather conditions in past years. The results will help you decide how hot, cold, wet, or windy it might be!

Date:

Astronomy

Sep. 04, 2013 Rise Set
Actual Time 6:26 AM PDT 7:34 PM PDT
Civil Twilight 5:55 AM PDT 8:05 PM PDT
Nautical Twilight 5:18 AM PDT 8:42 PM PDT
Astronomical Twilight 4:38 AM PDT 9:22 PM PDT
Moon 5:44 AM PDT (9/4) 6:54 PM PDT (9/4)
Length of Visible Light 14h 10m
Length of Day
13h 08m
Waning Crescent, 1% of the Moon is Illuminated
Sep 4
Waning Crescent
Sep 5
New
Sep 12
First Quarter
Sep 19
Full
Sep 26
Last Quarter

Hourly Weather History & Observations

Time (PDT) Temp. Heat Index Dew Point Humidity Pressure Visibility Wind Dir Wind Speed Gust Speed Precip Events Conditions
12:53 AM 71.1 °F - 53.1 °F 53% 29.92 in 10.0 mi NNW 8.1 mph - N/A   Clear
1:53 AM 72.0 °F - 53.1 °F 51% 29.92 in 10.0 mi NNW 6.9 mph - N/A   Overcast
2:53 AM 72.0 °F - 52.0 °F 49% 29.92 in 10.0 mi North 8.1 mph - N/A   Overcast
3:53 AM 72.0 °F - 51.1 °F 48% 29.92 in 10.0 mi NW 9.2 mph - N/A   Overcast
4:53 AM 68.0 °F - 52.0 °F 56% 29.92 in 10.0 mi WNW 6.9 mph - N/A   Scattered Clouds
5:53 AM 66.9 °F - 52.0 °F 59% 29.92 in 10.0 mi West 9.2 mph - N/A   Mostly Cloudy
6:53 AM 64.9 °F - 52.0 °F 63% 29.93 in 10.0 mi West 8.1 mph - N/A   Partly Cloudy
7:53 AM 66.9 °F - 53.1 °F 61% 29.95 in 10.0 mi West 8.1 mph - N/A   Mostly Cloudy
8:53 AM 73.9 °F - 53.1 °F 48% 29.95 in 10.0 mi WNW 6.9 mph - N/A   Partly Cloudy
9:53 AM 77.0 °F - 54.0 °F 45% 29.95 in 10.0 mi West 5.8 mph - N/A   Clear
10:53 AM 80.1 °F 79.9 °F 53.1 °F 39% 29.94 in 10.0 mi Variable 3.5 mph - N/A   Clear
11:53 AM 84.0 °F - 51.1 °F 32% 29.93 in 10.0 mi Calm Calm - N/A   Clear
12:53 PM 86.0 °F 84.2 °F 54.0 °F 33% 29.92 in 10.0 mi SE 8.1 mph - N/A   Clear
1:53 PM 88.0 °F 85.9 °F 54.0 °F 31% 29.91 in 10.0 mi South 8.1 mph - N/A   Clear
2:53 PM 89.1 °F - 52.0 °F 28% 29.89 in 10.0 mi East 4.6 mph - N/A   Scattered Clouds
3:53 PM 91.9 °F - 50.0 °F 24% 29.88 in 10.0 mi North 3.5 mph - N/A   Scattered Clouds
4:53 PM 91.0 °F - 45.0 °F 20% 29.86 in 10.0 mi SSW 6.9 mph - N/A   Clear
5:53 PM 90.0 °F - 46.9 °F 23% 29.85 in 10.0 mi South 4.6 mph - N/A   Clear
6:53 PM 86.0 °F - 51.1 °F 30% 29.85 in 10.0 mi Calm Calm - N/A   Clear
7:53 PM 77.0 °F - 50.0 °F 39% 29.86 in 10.0 mi Calm Calm - N/A   Clear
8:53 PM 73.9 °F - 53.1 °F 48% 29.89 in 10.0 mi SW 3.5 mph - N/A   Clear
9:53 PM 75.0 °F - 54.0 °F 48% 29.90 in 10.0 mi West 4.6 mph - N/A   Clear
10:53 PM 73.0 °F - 55.0 °F 53% 29.90 in 10.0 mi West 6.9 mph - N/A   Clear
11:53 PM 72.0 °F - 55.0 °F 55% 29.90 in 10.0 mi NW 6.9 mph - N/A   Clear